Location: Berlin
(3.6542°N, 76.3814°W)
Time: 01:36:51
(UTC+00:00)

Daily predictions for brighter satellites

Satellite Brightness Start Highest point End
(mag) Time Altitude Azimuth Time Altitude Azimuth Time Altitude Azimuth
Cosmos 2151 Rocket 3.4 00:01:39 10° S 00:06:01 67° E 00:08:04 30° NNE
Delta 7925 Rocket 4.1 00:00:49 10° SW 00:06:49 68° SSE 00:10:14 33° ENE
CZ-2D R/B 4.3 00:04:48 10° S 00:08:32 47° WSW 00:12:19 10° NNW
Hubble Space Telescope 2.0 00:05:37 10° W 00:09:07 35° SSW 00:11:10 20° SSE
SEDSat Delta rocket 4.0 00:02:48 10° WNW 00:09:24 78° SW 00:14:00 20° SE
SPOT 1/Viking Rocket 4.1 00:06:13 10° S 00:11:14 59° WSW 00:16:17 10° NNW
Cosmos 1943 Rocket 3.3 00:08:12 10° SW 00:13:30 42° WNW 00:18:48 10° N
IRAS Rocket 4.5 00:10:44 10° S 00:16:20 71° WSW 00:21:54 10° NNW
Cosmos 44 Rocket 4.1 00:12:08 10° SW 00:16:31 45° WNW 00:19:30 19° N
SL-19 R/B 4.5 00:18:06 10° S 00:23:47 70° WSW 00:29:10 10° NNW
Geosat 3.8 00:20:28 10° SSE 00:25:25 68° ENE 00:30:22 10° NNW
Cosmos 909 Rocket 4.3 00:19:03 10° NNW 00:25:43 86° ENE 00:33:58 10° SSE
Ariane H10-3 3.3 00:24:34 10° WNW 00:26:09 34° NW 00:26:09 34° NW
Palapa 6 Rocket 3.8 00:24:27 10° WNW 00:30:22 89° SSW 00:32:10 52° ESE
Cosmos 1932 4.3 00:27:27 10° SSW 00:33:33 65° ESE 00:33:54 64° E
Cosmos 676 Rocket 4.1 00:40:05 10° SSW 00:44:54 73° SW 00:44:54 73° SW
Okean 1 Rocket 4.0 00:42:19 10° SSW 00:45:43 45° SW 00:45:43 45° SW
SJ 16-02 2.4 00:43:09 10° SSW 00:46:30 42° WSW 00:46:30 42° WSW
ARIANE R/B 4.3 00:45:04 10° W 00:47:38 38° WNW 00:47:38 38° WNW
ATLAS 5 CENTAUR R/B 3.5 00:47:26 10° SSW 00:49:32 20° SSE 00:49:32 20° SSE
Atlas Centaur 2 3.3 00:46:31 10° W 00:51:38 41° SSW 00:53:44 32° SSE
USA 234 4.4 00:53:02 24° N 00:55:51 34° NW 01:01:37 10° WSW
VEP-3 4.3 00:53:30 10° NW 00:55:46 20° NNW 00:55:46 20° NNW
Ariane H10+ 3.6 01:06:23 10° WSW 01:08:31 29° SW 01:08:31 29° SW
Sylda 5 4.4 01:28:53 10° W 01:48:59 56° SW 01:48:59 56° SW
ARIANE 5 R/B 4.1 01:52:43 10° WSW 02:28:30 18° ESE 02:53:50 10° E
CZ-3 Stage 3 3.4 08:16:52 88° NNE 08:16:52 88° NNE 08:40:42 10° ENE
ARIANE 5 R/B 3.9 08:24:34 23° E 08:24:34 23° E 08:25:48 10° E
ARIANE 5 DEB (SYLDA) 4.5 08:27:30 65° SE 08:27:30 65° SE 08:39:32 10° E
Centaur AC-119 4.3 08:31:37 35° ESE 08:31:37 35° ESE 08:34:07 10° ESE
Cosmos 2237 Rocket 4.1 08:27:28 10° SSE 08:32:11 27° ESE 08:36:52 10° NE
ARIANE 44L R/B 4.4 08:31:44 42° S 08:32:28 44° SSE 08:51:10 10° E
CZ-3 R/B 3.9 07:56:35 10° WSW 08:37:53 54° NW 08:48:17 10° NE
Meteor 1-16 Rocket 4.3 08:48:35 71° SSE 08:48:35 71° SSE 08:53:38 10° S
OAO 2 Rocket 4.2 08:50:44 43° SSE 08:50:44 43° SSE 08:54:18 10° SE
Cosmos 1844 4.1 08:51:30 49° NNE 08:52:33 58° ENE 08:58:00 10° SSE
Cosmos 1535 Rocket 4.5 08:57:26 33° N 09:00:25 80° E 09:06:38 10° S
FALCON 9 R/B 4.0 08:56:30 26° NNW 09:02:44 41° NNE 09:07:58 10° E
Meteor 2-14 Rocket 4.3 09:04:40 10° S 09:10:48 74° W 09:16:52 10° N
ARIANE 42L R/B 3.7 09:12:29 32° SSW 09:12:58 34° S 09:15:43 10° ESE
CZ-4C R/B 3.5 09:13:15 38° WNW 09:16:34 55° WSW 09:25:23 10° S
SL-16 R/B 2.4 09:13:30 10° SSE 09:19:41 86° WSW 09:25:08 14° NNW
ARIANE 5 R/B 2.2 09:24:52 25° SE 09:24:52 25° SE 09:25:54 10° ESE
Centaur AC-112 3.0 09:29:23 40° NNW 09:29:45 41° NNW 09:37:46 10° NE
CZ-2C R/B 4.4 09:34:10 14° SW 09:34:10 14° SW 09:34:54 10° SW
Cosmos 1733 Rocket 3.3 09:27:52 10° N 09:32:07 66° E 09:36:25 10° SSE
Cosmos 1844 Rocket 3.1 09:33:56 34° WNW 09:35:17 39° WSW 09:40:32 10° S
GPS 2-15 Rocket1 3.8 09:37:01 29° NNW 09:38:53 43° NNE 09:43:23 10° E
UNK 4.0 09:37:29 10° SSE 09:41:57 68° ENE 09:46:25 10° N
ATLAS CENTAUR R/B 1.1 09:42:50 40° WSW 09:42:50 40° WSW 09:45:32 10° S
TRAILBLAZER 4.5 09:39:58 22° NNW 09:42:51 79° WSW 09:47:21 10° SSE
Cosmos 1328 3.8 09:43:06 10° SSW 09:46:32 43° W 09:49:59 10° NNW
Cosmos 1606 3.9 09:46:51 10° NNE 09:49:14 28° E 09:51:37 10° SSE
IRS-1D 3.3 09:49:04 10° N 09:53:54 64° WNW 09:58:48 10° SSW
BLOCK DM-SL R/B 4.3 09:39:24 16° W 09:54:39 74° S 09:59:24 10° E
Cosmos 1703 Rocket 3.7 09:52:08 10° SSW 09:56:15 45° W 10:00:22 10° NNW
Cosmos 2100 Rocket 4.2 09:53:02 10° N 09:59:11 74° E 10:05:24 10° S
Cosmos 1980 4.4 09:54:57 10° SW 09:59:42 28° WNW 10:04:28 10° NNW
BLOCK DM-SL R/B 4.2 09:58:54 14° WSW 10:02:31 66° S 10:25:03 10° E
ASTEX 1 4.5 10:03:29 10° SSW 10:07:26 24° W 10:11:21 10° NW
Skynet4D Del rocket 3.7 10:08:31 10° WSW 10:14:54 77° NNW 10:20:32 10° ENE
Ariane H10+ 3.5 10:13:13 10° WSW 10:15:42 57° SSE 10:23:08 10° E
Cosmos 2237 Rocket 3.3 10:11:46 10° WSW 10:15:56 21° WNW 10:20:06 10° NNW
Hubble Space Telescope 3.6 10:14:36 10° S 10:15:59 12° SSE 10:17:22 10° SE
Cosmos 921 Rocket 3.1 10:12:07 10° N 10:16:31 86° ENE 10:20:53 10° SSE
Ariane 42L R/B 4.4 10:09:47 10° WSW 10:17:13 32° SSW 10:20:57 10° SE
USA 229 DEB 3.3 10:11:50 10° SSW 10:17:27 83° ESE 10:23:09 10° NNE
USA 229 3.3 10:12:02 10° SSW 10:17:39 82° ESE 10:23:19 10° NNE
Centaur AC-119 4.2 10:15:31 10° W 10:19:03 19° SW 10:21:43 10° S
Cosmos 2292 Rocket 3.7 10:16:47 10° SSW 10:19:31 29° W 10:22:40 10° NNW
OAO 3 Rocket 4.4 10:15:54 11° W 10:19:46 28° SW 10:23:51 10° SSE
Cosmos 1459 Rocket 4.0 10:13:31 10° N 10:19:49 79° W 10:26:03 10° S
Cosmos 1624 Rocket 4.0 10:22:30 10° SSW 10:27:39 64° WNW 10:32:46 10° N
Cosmos 1725 Rocket 4.2 10:24:31 10° N 10:30:49 81° E 10:37:05 10° S
